GLOBALSTAR M001 1 25162U 98008A 10073.25131324 -.00000084 00000-0 10000-3 0 5121 2 25162 52.0053 353.0031 0001054 55.3200 304.7753 12.37994202553396 GLOBALSTAR M004 1 25163U 98008B 10073.65828001 -.00000086 00000-0 10000-3 0 5639 2 25163 51.9986 133.8308 0003984 171.8676 188.2255 12.63159522557366 GLOBALSTAR M002 1 25164U 98008C 10073.52167517 -.00000071 00000-0 10000-3 0 4536 2 25164 51.9999 174.0702 0001612 106.6420 253.4566 11.61426554536495 GLOBALSTAR M003 1 25165U 98008D 10073.62978222 -.00000086 00000-0 10000-3 0 5785 2 25165 51.9939 140.5897 0000411 303.7416 56.3315 12.62267632557200 GLOBALSTAR M014 1 25306U 98023A 10073.55171616 -.00000083 00000-0 10000-3 0 4442 2 25306 51.9895 240.1661 0002337 98.7595 261.3529 12.29156147540839 GLOBALSTAR M006 1 25307U 98023B 10073.72178153 -.00000086 00000-0 10000-3 0 2761 2 25307 51.9963 186.5334 0002403 140.8836 219.2203 12.62262812548380 GLOBALSTAR M015 1 25308U 98023C 10073.62068019 -.00000086 00000-0 10000-3 0 2850 2 25308 51.9935 186.2359 0001916 153.1721 206.9236 12.62267020548376 GLOBALSTAR M008 1 25309U 98023D 10073.73859244 -.00000085 00000-0 10000-3 0 2614 2 25309 51.9929 189.9885 0002036 175.7963 184.2923 12.57124489548327 GLOBALSTAR M023 1 25621U 99004A 10072.67287946 -.00000086 00000-0 10000-3 0 2540 2 25621 52.0105 103.1921 0009454 54.2260 305.9479 12.62226133511786 GLOBALSTAR M040 1 25622U 99004B 10073.56454825 -.00000086 00000-0 10000-3 0 1596 2 25622 51.9912 96.3803 0000207 242.5192 117.5634 12.61703447511907 GLOBALSTAR M036 1 25623U 99004C 10073.10100385 -.00000086 00000-0 10000-3 0 2003 2 25623 51.9987 99.0657 0001236 200.4423 159.6384 12.62268433511877 GLOBALSTAR M038 1 25624U 99004D 10073.16531614 -.00000086 00000-0 10000-3 0 2014 2 25624 52.0009 54.8337 0000776 170.2511 189.8362 12.62273884512620 GLOBALSTAR M022 1 25649U 99012A 10073.23133888 -.00000084 00000-0 10000-3 0 1623 2 25649 52.0119 339.2700 0001363 110.0776 250.0224 12.38629751505587 GLOBALSTAR M041 1 25650U 99012B 10073.72967178 -.00000086 00000-0 10000-3 0 2090 2 25650 52.0055 233.7692 0002764 123.1575 236.9549 12.62255814507514 GLOBALSTAR M046 1 25651U 99012C 10073.71187255 -.00000086 00000-0 10000-3 0 2135 2 25651 52.0019 232.0186 0000868 114.9116 245.1841 12.62269646507499 GLOBALSTAR M037 1 25652U 99012D 10073.73206056 -.00000086 00000-0 10000-3 0 1857 2 25652 52.0011 233.0832 0002511 121.9793 238.1319 12.62269903507462 GLOBALSTAR M045 1 25676U 99019A 10073.05685852 -.00000086 00000-0 10000-3 0 3111 2 25676 51.9931 233.0287 0002679 122.6010 237.5114 12.62257132504976 GLOBALSTAR M019 1 25677U 99019B 10073.54409908 -.00000086 00000-0 10000-3 0 2111 2 25677 51.9944 276.3069 0002501 95.1162 264.9986 12.62269407504985 GLOBALSTAR M044 1 25678U 99019C 10073.75471311 -.00000084 00000-0 10000-3 0 2053 2 25678 51.9992 254.7727 0000377 33.8378 326.2510 12.39447444504019 GLOBALSTAR M042 1 25679U 99019D 10073.10136016 -.00000086 00000-0 10000-3 0 2987 2 25679 52.0054 324.5515 0000606 113.7220 246.3708 12.62271310503496 GLOBALSTAR M025 1 25770U 99031A 10072.81376872 -.00000086 00000-0 10000-3 0 1525 2 25770 51.9972 279.1646 0000907 86.1081 273.9887 12.62255401496215 GLOBALSTAR M049 1 25771U 99031B 10073.69842771 -.00000084 00000-0 10000-3 0 3552 2 25771 51.9960 283.5069 0003380 59.2071 300.9114 12.40169411496191 GLOBALSTAR M047 1 25772U 99031C 10073.80333676 -.00000086 00000-0 10000-3 0 2286 2 25772 51.9957 275.7320 0000778 95.7465 264.3492 12.62256688496347 GLOBALSTAR M052 1 25773U 99031D 10072.51691419 -.00000086 00000-0 10000-3 0 9441 2 25773 51.9921 278.4157 0002322 102.1271 257.9857 12.62256316496185 GLOBALSTAR M035 1 25851U 99037A 10073.85298732 -.00000061 00000-0 10000-3 0 8276 2 25851 51.9935 243.3161 0012340 313.7983 46.1790 11.04481517480448 GLOBALSTAR M032 1 25852U 99037B 10073.12325684 -.00000086 00000-0 10000-3 0 1296 2 25852 52.0043 323.6172 0001822 75.0629 285.0440 12.62267424492491 GLOBALSTAR M051 1 25853U 99037C 10072.90557214 -.00000086 00000-0 10000-3 0 1423 2 25853 52.0025 324.1758 0001734 105.9453 254.1576 12.62268966492464 GLOBALSTAR M030 1 25854U 99037D 10073.08369081 -.00000086 00000-0 10000-3 0 1405 2 25854 52.0036 323.9347 0000994 70.7251 289.3725 12.62262852492486 GLOBALSTAR M048 1 25872U 99041A 10073.07612437 -.00000086 00000-0 10000-3 0 1821 2 25872 52.0074 10.1102 0000656 131.5562 228.5351 12.62272479490213 GLOBALSTAR M026 1 25873U 99041B 10073.01698623 -.00000086 00000-0 10000-3 0 1591 2 25873 52.0081 10.4376 0001454 62.2791 297.8213 12.62268238490594 GLOBALSTAR M043 1 25874U 99041C 10073.29199276 -.00000086 00000-0 10000-3 0 1682 2 25874 52.0069 9.5281 0001116 67.1462 292.9522 12.62258694490627 GLOBALSTAR M028 1 25875U 99041D 10073.35338806 -.00000086 00000-0 10000-3 0 1437 2 25875 52.0065 9.0444 0000957 107.7657 252.3316 12.62269880490630 GLOBALSTAR M024 1 25883U 99043A 10073.83880050 -.00000086 00000-0 10000-3 0 1568 2 25883 52.0062 53.6859 0001033 153.2802 206.8125 12.62270115487816 GLOBALSTAR M027 1 25884U 99043B 10072.47474076 -.00000086 00000-0 10000-3 0 1352 2 25884 52.0075 57.7538 0000790 91.3776 268.7181 12.62268834487646 GLOBALSTAR M054 1 25885U 99043C 10073.39343091 -.00000081 00000-0 10000-3 0 1015 2 25885 52.0117 307.1530 0000807 78.2510 281.8427 12.20515431483217 GLOBALSTAR M053 1 25886U 99043D 10073.46492859 -.00000086 00000-0 10000-3 0 1566 2 25886 52.0087 54.7528 0000628 336.4581 23.6260 12.62268827487776 GLOBALSTAR M058 1 25907U 99049A 10073.14542196 -.00000086 00000-0 10000-3 0 1516 2 25907 51.9960 53.1560 0000923 113.6014 246.4928 12.62270206483980 GLOBALSTAR M050 1 25908U 99049B 10073.60829998 -.00000079 00000-0 10000-3 0 1103 2 25908 52.0001 293.9435 0009304 85.4205 274.7707 12.07311305479679 GLOBALSTAR M033 1 25909U 99049C 10072.89048099 -.00000086 00000-0 10000-3 0 1411 2 25909 51.9977 54.1052 0000928 74.3257 285.7711 12.62272152483937 GLOBALSTAR M055 1 25910U 99049D 10073.15215841 -.00000084 00000-0 10000-3 0 1546 2 25910 52.0028 117.7418 0001606 96.1202 263.9837 12.38119593482877 GLOBALSTAR M057 1 25943U 99058A 10072.49237497 -.00000086 00000-0 10000-3 0 4689 2 25943 52.0010 190.5292 0002133 105.2654 254.8448 12.62257893479845 GLOBALSTAR M059 1 25944U 99058B 10073.42272542 -.00000086 00000-0 10000-3 0 1243 2 25944 52.0029 188.2944 0001434 100.5083 259.5945 12.62266629479987 GLOBALSTAR M056 1 25945U 99058C 10073.62790312 -.00000086 00000-0 10000-3 0 4643 2 25945 51.9967 141.4487 0001088 180.8447 179.2412 12.62273942480749 GLOBALSTAR M031 1 25946U 99058D 10073.68708186 -.00000086 00000-0 10000-3 0 1476 2 25946 51.9978 141.6183 0003196 95.3370 264.7773 12.62261125480777 GLOBALSTAR M039 1 25961U 99062A 10072.90308955 -.00000086 00000-0 10000-3 0 4262 2 25961 51.9962 323.0495 0000670 137.8827 222.2033 12.62260429476298 GLOBALSTAR M034 1 25962U 99062B 10072.38083632 -.00000086 00000-0 10000-3 0 735 2 25962 51.9999 10.8840 0001046 117.7970 242.2985 12.62289846475446 GLOBALSTAR M029 1 25963U 99062C 10073.69492466 -.00000086 00000-0 10000-3 0 4453 2 25963 51.9923 95.7409 0001661 145.7171 214.3802 12.62269057486109 GLOBALSTAR M061 1 25964U 99062D 10073.42311288 -.00000074 00000-0 10000-3 0 1114 2 25964 51.9769 208.7166 0004605 281.9391 78.0925 11.76686277465303 GLOBALSTAR M063 1 26081U 00008A 10073.64764494 -.00000086 00000-0 10000-3 0 2037 2 26081 51.9988 141.8178 0000533 350.1285 9.9551 12.62267250474135 GLOBALSTAR M062 1 26082U 00008B 10073.10041686 -.00000085 00000-0 10000-3 0 1027 2 26082 52.0068 288.8393 0003382 130.6311 229.4848 12.49987256465615 GLOBALSTAR M060 1 26083U 00008C 10073.41722589 -.00000086 00000-0 10000-3 0 2022 2 26083 52.0036 189.4269 0001517 130.0791 230.0206 12.62270321473318 GLOBALSTAR M064 1 26084U 00008D 10072.71732080 -.00000086 00000-0 10000-3 0 4136 2 26084 52.0056 146.0942 0001877 141.2887 218.8113 12.62265026491976 GLOBALSTAR M065 1 31571U 07020A 10072.87321810 -.00000105 00000-0 -47056-5 0 8664 2 31571 51.9918 279.1130 0002504 110.8889 249.2197 12.62266332129774 GLOBALSTAR M069 1 31573U 07020C 10073.37553509 -.00000086 00000-0 10000-3 0 4383 2 31573 51.9925 232.7231 0002863 116.4772 243.6387 12.62271098130576 GLOBALSTAR M072 1 31574U 07020D 10073.81594305 -.00000154 00000-0 -28212-3 0 8635 2 31574 52.0124 322.4705 0001782 103.2078 256.9046 12.62257888129135 GLOBALSTAR M071 1 31576U 07020F 10072.48474096 -.00000086 00000-0 10000-3 0 4616 2 31576 52.0046 236.1725 0002604 118.3959 241.7152 12.62265074130455 GLOBALSTAR M067 1 32263U 07048A 10073.43754067 -.00000104 00000-0 00000+0 0 8154 2 32263 51.9742 96.5064 0000979 195.0770 165.0060 12.62261474112265 GLOBALSTAR M070 1 32264U 07048B 10073.79863561 -.00000086 00000-0 10000-3 0 7663 2 32264 51.9756 185.8773 0002328 147.9537 212.1469 12.62267691110797 GLOBALSTAR M066 1 32265U 07048C 10073.88052071 -.00000104 00000-0 00000+0 0 8230 2 32265 51.9679 50.1275 0000692 8.8036 351.2839 12.62267066113036 GLOBALSTAR M068 1 32266U 07048D 10073.29398650 -.00000086 00000-0 10000-3 0 8270 2 32266 51.9862 7.9837 0000725 75.1236 284.9710 12.62267335113726